Weather History for Billings, MT

Change the Weather History Date:

Thursday, May 16, 2013

  Actual Average Record
Temperature  
Mean Temperature 61 °F 56 °F  
Max Temperature 70 °F 68 °F 91 °F (1988)
Min Temperature 52 °F 44 °F 30 °F (1974)
Degree Days  
Heating Degree Days 4 10  
Month to date heating degree days 128 193  
Since 1 July heating degree days 6220 6570  
Cooling Degree Days 0 0  
Month to date cooling degree days 27 0  
Year to date cooling degree days 27 1  
Growing Degree Days 11 (Base 50)    
Moisture  
Dew Point 46 °F    
Average Humidity 65    
Maximum Humidity 93    
Minimum Humidity 37    
Precipitation  
Precipitation 0.19 in 0.07 in 1.03 in (1981)
Month to date precipitation 0.28 1.07  
Year to date precipitation 2.44 4.75  
Snow  
Snow 0.00 in 0.10 in T in (1942)
Month to date snowfall T 1.6  
Since 1 July snowfall 40.4 54.6  
Snow Depth 0.00 in    
Sea Level Pressure  
Sea Level Pressure 29.80 in    
Wind  
Wind Speed 8 mph (NNE)    
Max Wind Speed 23 mph    
Max Gust Speed 26 mph    
Visibility 10 miles    
Events Rain , Thunderstorm    
T = Trace of Precipitation, MM = Missing Value Source: NWS Daily Summary

Daily Weather History Graph

Daily Weather History Graph

Search for Another Location

Airport:

Trip Planner

Search our weather history database for the weather conditions in past years. The results will help you decide how hot, cold, wet, or windy it might be!

Date:

Astronomy

May. 16, 2013 Rise Set
Actual Time 5:41 AM MDT 8:40 PM MDT
Civil Twilight 5:06 AM MDT 9:15 PM MDT
Nautical Twilight 4:21 AM MDT 10:01 PM MDT
Astronomical Twilight 3:27 AM MDT 10:55 PM MDT
Moon 11:23 AM MDT (5/16) 12:58 AM MDT (5/16)
Length of Visible Light 16h 09m
Length of Day
14h 59m
Waxing Crescent, 36% of the Moon is Illuminated
May 16
Waxing Crescent
May 17
First Quarter
May 24
Full
May 31
Last Quarter
Jun 8
New

Hourly Weather History & Observations

Time (MDT) Temp. Dew Point Humidity Pressure Visibility Wind Dir Wind Speed Gust Speed Precip Events Conditions
12:53 AM 57.9 °F 46.0 °F 65% 29.81 in 10.0 mi NE 8.1 mph - 0.01 in   Mostly Cloudy
1:53 AM 57.0 °F 45.0 °F 64% 29.79 in 10.0 mi East 9.2 mph - N/A   Scattered Clouds
2:53 AM 55.9 °F 44.1 °F 64% 29.81 in 10.0 mi Calm Calm - N/A   Partly Cloudy
3:53 AM 54.0 °F 44.1 °F 69% 29.80 in 10.0 mi East 10.4 mph - N/A   Partly Cloudy
4:53 AM 54.0 °F 44.1 °F 69% 29.78 in 10.0 mi NE 6.9 mph - N/A   Partly Cloudy
5:53 AM 52.0 °F 44.1 °F 74% 29.80 in 10.0 mi NNE 4.6 mph - N/A   Scattered Clouds
6:53 AM 53.1 °F 44.1 °F 71% 29.81 in 10.0 mi Calm Calm - N/A   Scattered Clouds
7:53 AM 55.9 °F 44.1 °F 64% 29.82 in 10.0 mi Calm Calm - N/A   Scattered Clouds
8:53 AM 57.0 °F 44.1 °F 62% 29.81 in 10.0 mi NNE 8.1 mph - N/A   Mostly Cloudy
9:53 AM 59.0 °F 44.1 °F 58% 29.81 in 10.0 mi Variable 4.6 mph - N/A   Mostly Cloudy
10:53 AM 63.0 °F 45.0 °F 52% 29.81 in 10.0 mi NNE 8.1 mph - N/A   Scattered Clouds
11:53 AM 66.0 °F 44.1 °F 45% 29.79 in 10.0 mi NE 10.4 mph 16.1 mph N/A   Scattered Clouds
12:53 PM 66.9 °F 44.1 °F 44% 29.78 in 10.0 mi ENE 12.7 mph - N/A   Scattered Clouds
1:53 PM 66.9 °F 44.1 °F 44% 29.76 in 10.0 mi NE 13.8 mph 23.0 mph N/A   Scattered Clouds
2:53 PM 69.1 °F 43.0 °F 39% 29.75 in 10.0 mi NE 12.7 mph - N/A   Mostly Cloudy
3:53 PM 68.0 °F 43.0 °F 40% 29.74 in 10.0 mi East 6.9 mph - N/A   Overcast
4:53 PM 66.0 °F 45.0 °F 47% 29.75 in 10.0 mi West 5.8 mph - N/A   Overcast
5:15 PM 57.9 °F 48.9 °F 72% 29.82 in 10.0 mi NW 20.7 mph - 0.00 in Rain Light Rain
5:53 PM 54.0 °F 50.0 °F 86% 29.84 in 3.0 mi NW 17.3 mph - 0.09 in Rain , Thunderstorm Thunderstorms and Rain
6:46 PM 55.0 °F 50.0 °F 83% 29.83 in 10.0 mi NNE 11.5 mph - 0.10 in   Mostly Cloudy
6:53 PM 55.0 °F 50.0 °F 83% 29.81 in 10.0 mi NNE 10.4 mph - 0.10 in   Mostly Cloudy
7:53 PM 55.0 °F 51.1 °F 86% 29.82 in 10.0 mi North 9.2 mph - N/A   Mostly Cloudy
8:53 PM 54.0 °F 51.1 °F 90% 29.80 in 10.0 mi East 11.5 mph - 0.00 in Rain Light Rain
9:53 PM 53.1 °F 50.0 °F 89% 29.84 in 10.0 mi West 5.8 mph - 0.00 in   Mostly Cloudy
10:53 PM 54.0 °F 52.0 °F 93% 29.83 in 10.0 mi WNW 6.9 mph - N/A   Overcast
11:53 PM 53.1 °F 50.0 °F 89% 29.83 in 10.0 mi NW 9.2 mph - N/A   Overcast